User: anonymous   Login
Location: Unspecified
(0.0000°N, 0.0000°E)
Time: 01:40:50
(UTC+00:00)
Language:

USA 269 - Orbit

View from above orbital plane
View from above orbital plane
View from above satellite
View from above satellite

Ground track
Ground track

The orbit data is extracted from the following two-line orbital elements,

1 41724U 16047A   17111.07313023 0.00000000  00000-0  00000-0 0    09
2 41724   4.6780 327.7058 0004679 345.3127  14.6748  1.00270000    08
Epoch (UTC): 21 April 2017 01:45:18
Eccentricity: 0.0004679
inclination: 4.6780°
perigee height: 35767 km
apogee height: 35806 km
right ascension of ascending node: 327.7058°
argument of perigee: 345.3127°
revolutions per day: 1.00270000
mean anomaly at epoch: 14.6748°
orbit number at epoch: 0

The dashed part of the orbit path shows where the satellite is in the earth's shadow,  

DLR